Location: Unspecified
(0.0000°N, 0.0000°E)
Time: 01:08:17
(UTC+00:00)

LT-1 O1A - Visible Passes

Search period start: 08 September 2024 00:00
Search period end: 18 September 2024 00:00
Orbit: 601 x 604 km, 97.8° (Epoch: 07 September)

Date Brightness Start Highest point End Pass type
(mag) Time Alt. Az. Time Alt. Az. Time Alt. Az.
08 Sep ? 05:18:23 10° NE 05:21:46 23° ESE 05:25:09 10° SSE visible
08 Sep ? 19:02:21 10° WSW 19:03:16 11° WSW 19:04:12 10° W visible
09 Sep ? 05:29:50 10° NE 05:33:40 34° ESE 05:37:32 10° SSE visible
13 Sep ? 18:23:27 10° SSW 18:27:19 35° WSW 18:31:10 10° NW visible
14 Sep ? 04:56:51 10° E 04:57:43 11° ESE 04:58:34 10° ESE visible
14 Sep ? 18:35:48 10° SSW 18:39:12 24° WSW 18:42:36 10° NW visible
15 Sep ? 05:06:59 10° ENE 05:09:35 16° ESE 05:12:11 10° SE visible
15 Sep ? 18:48:26 10° SW 18:51:04 16° WSW 18:53:42 10° WNW visible
16 Sep ? 05:18:05 10° NE 05:21:27 23° ESE 05:24:50 10° SSE visible
16 Sep ? 19:01:55 10° WSW 19:02:56 11° WSW 19:03:56 10° W visible
17 Sep ? 05:29:28 10° NE 05:33:19 34° ESE 05:37:10 10° SSE visible
